Bemidji, MN

2:35 PM CDT on March 29, 2017 (GMT -0500)
Bemidji-Beltrami County

Weather History for KBJI - November, 2014

Change the Weather History Date:

Saturday, November 8, 2014

  Actual Average Record
Temperature  
Mean Temperature 30 °F -  
Max Temperature 33 °F 38 °F 69 °F (1999)
Min Temperature 27 °F 21 °F -9 °F (2003)
Degree Days  
Heating Degree Days 35    
Moisture  
Dew Point 24 °F    
Average Humidity 80    
Maximum Humidity 96    
Minimum Humidity 60    
Precipitation  
Precipitation 0.00 in - - ()
Sea Level Pressure  
Sea Level Pressure 29.88 in    
Wind  
Wind Speed 17 mph (WNW)    
Max Wind Speed 26 mph    
Max Gust Speed 38 mph    
Visibility 7 miles    
Events Snow    
Averages and records for this station are not official NWS values.
T = Trace of Precipitation, MM = Missing Value Source: NWS Daily Summary

Daily Weather History Graph

Daily Weather History Graph

Search for Another Location

Airport or City:

Trip Planner

Search our weather history database for the weather conditions in past years. The results will help you decide how hot, cold, wet, or windy it might be!

Date:

Astronomy

Nov. 08, 2014 Rise Set
Actual Time 7:14 AM CST 4:52 PM CST
Civil Twilight 6:41 AM CST 5:24 PM CST
Nautical Twilight 6:04 AM CST 6:01 PM CST
Astronomical Twilight 5:28 AM CST 6:37 PM CST
Moon 6:30 PM CST (11/8) 8:54 AM CST (11/8)
Length of Visible Light 10h 43m
Length of Day
9h 37m
Waning Gibbous, 96% of the Moon is Illuminated
Nov 8
Waning Gibbous
Nov 14
Last Quarter
Nov 22
New
Nov 29
First Quarter
Dec 6
Full

Hourly Weather History & Observations

Time (CST) Temp. Windchill Dew Point Humidity Pressure Visibility Wind Dir Wind Speed Gust Speed Precip Events Conditions
12:13 AM 33.8 °F 22.2 °F 27.7 °F 78% 29.88 in 10.0 mi NW 20.7 mph 31.1 mph N/A   Overcast
12:33 AM 33.3 °F 22.1 °F 27.5 °F 79% 29.89 in 10.0 mi NW 18.4 mph 32.2 mph N/A   Overcast
12:52 AM 33.1 °F 20.9 °F 27.3 °F 79% 29.90 in 10.0 mi WNW 21.9 mph 32.2 mph N/A   Overcast
1:13 AM 32.2 °F 18.9 °F 27.3 °F 82% 29.91 in 10.0 mi NW 25.3 mph 32.2 mph N/A   Overcast
1:32 AM 32.0 °F 19.5 °F 26.1 °F 79% 29.92 in 10.0 mi NW 21.9 mph 32.2 mph N/A   Overcast
1:52 AM 31.1 °F 17.2 °F 22.3 °F 70% 29.93 in 10.0 mi NW 26.5 mph 38.0 mph N/A   Overcast
2:13 AM 31.1 °F 18.3 °F 22.3 °F 70% 29.94 in 10.0 mi NNW 21.9 mph 32.2 mph N/A   Overcast
2:32 AM 30.9 °F 17.2 °F 22.5 °F 71% 29.94 in 10.0 mi NW 25.3 mph 32.2 mph N/A   Overcast
2:52 AM 30.6 °F 16.4 °F 20.5 °F 66% 29.96 in 10.0 mi NW 26.5 mph 33.4 mph N/A   Overcast
3:13 AM 30.2 °F 16.2 °F 19.9 °F 66% 29.96 in 10.0 mi NW 25.3 mph 33.4 mph N/A   Overcast
3:32 AM 29.8 °F 18.0 °F 20.1 °F 67% 29.97 in 10.0 mi NW 17.3 mph 27.6 mph N/A   Overcast
3:52 AM 28.6 °F 18.2 °F 20.3 °F 71% 29.97 in 10.0 mi NW 12.7 mph 18.4 mph N/A   Scattered Clouds
4:13 AM 29.1 °F 17.1 °F 21.2 °F 72% 29.97 in 10.0 mi WNW 17.3 mph - N/A   Mostly Cloudy
4:32 AM 28.6 °F 16.8 °F 21.2 °F 74% 29.97 in 10.0 mi NW 16.1 mph 20.7 mph N/A   Mostly Cloudy
4:52 AM 29.3 °F 18.2 °F 22.1 °F 75% 29.97 in 10.0 mi WNW 15.0 mph 20.7 mph N/A   Overcast
5:13 AM 28.9 °F 17.7 °F 21.2 °F 73% 29.97 in 10.0 mi NW 15.0 mph - N/A   Scattered Clouds
5:32 AM 29.1 °F 17.9 °F 21.0 °F 72% 29.98 in 10.0 mi WNW 15.0 mph - N/A   Mostly Cloudy
5:52 AM 29.1 °F 17.1 °F 21.7 °F 74% 29.98 in 10.0 mi NW 17.3 mph 20.7 mph N/A   Overcast
6:13 AM 28.2 °F 16.3 °F 20.7 °F 73% 29.98 in 10.0 mi WNW 16.1 mph 23.0 mph N/A   Scattered Clouds
6:32 AM 28.4 °F 18.0 °F 20.3 °F 72% 29.98 in 10.0 mi NW 12.7 mph - N/A   Scattered Clouds
6:53 AM 28.4 °F 15.8 °F 20.1 °F 71% 29.98 in 10.0 mi NW 18.4 mph 23.0 mph N/A   Overcast
7:13 AM 28.4 °F 15.8 °F 19.0 °F 68% 29.98 in 10.0 mi NW 18.4 mph 26.5 mph N/A   Overcast
7:32 AM 28.2 °F 15.9 °F 18.5 °F 67% 29.99 in 10.0 mi NW 17.3 mph 20.7 mph N/A   Overcast
7:53 AM 27.5 °F 15.4 °F 18.9 °F 70% 29.99 in 10.0 mi NW 16.1 mph 21.9 mph N/A   Overcast
8:13 AM 27.3 °F 17.7 °F 19.4 °F 72% 29.99 in 10.0 mi NW 10.4 mph - N/A   Scattered Clouds
8:32 AM 28.4 °F 17.0 °F 19.4 °F 69% 29.99 in 10.0 mi NW 15.0 mph - N/A   Clear
8:53 AM 28.6 °F 16.8 °F 19.9 °F 70% 29.99 in 10.0 mi NW 16.1 mph - N/A   Scattered Clouds
9:13 AM 29.3 °F 17.7 °F 20.5 °F 70% 29.99 in 10.0 mi WNW 16.1 mph 20.7 mph N/A   Scattered Clouds
9:32 AM 29.3 °F 16.6 °F 20.3 °F 69% 29.98 in 10.0 mi WNW 19.6 mph 23.0 mph N/A   Mostly Cloudy
9:52 AM 29.3 °F 18.2 °F 20.5 °F 70% 29.98 in 10.0 mi WNW 15.0 mph - N/A   Overcast
10:13 AM 30.4 °F 18.7 °F 21.0 °F 68% 29.98 in 10.0 mi WNW 17.3 mph - N/A   Mostly Cloudy
10:32 AM 30.6 °F 19.8 °F 20.5 °F 66% 29.97 in 10.0 mi West 15.0 mph 25.3 mph N/A   Mostly Cloudy
10:52 AM 30.9 °F 18.4 °F 20.3 °F 65% 29.97 in 10.0 mi West 20.7 mph 26.5 mph N/A   Mostly Cloudy
11:13 AM 31.1 °F 18.9 °F 20.1 °F 64% 29.97 in 10.0 mi West 19.6 mph 25.3 mph N/A   Overcast
11:32 AM 31.1 °F 19.3 °F 18.7 °F 60% 29.96 in 10.0 mi WNW 18.4 mph 26.5 mph N/A   Mostly Cloudy
11:52 AM 31.1 °F 19.7 °F 18.9 °F 61% 29.95 in 10.0 mi WNW 17.3 mph - N/A   Mostly Cloudy
12:13 PM 31.1 °F 20.1 °F 18.7 °F 60% 29.94 in 10.0 mi WNW 16.1 mph 24.2 mph N/A   Mostly Cloudy
12:33 PM 30.7 °F 19.2 °F 19.6 °F 63% 29.93 in 10.0 mi West 17.3 mph 26.5 mph N/A   Mostly Cloudy
12:52 PM 30.0 °F 17.9 °F 20.3 °F 67% 29.93 in 10.0 mi WNW 18.4 mph 24.2 mph N/A   Mostly Cloudy
1:13 PM 29.1 °F 17.5 °F 22.3 °F 76% 29.92 in 4.0 mi WNW 16.1 mph - N/A Snow Light Snow
1:52 PM 28.4 °F 19.1 °F 24.4 °F 85% 29.90 in 2.0 mi West 10.4 mph - N/A Snow Light Snow
2:13 PM 28.4 °F 21.2 °F 25.7 °F 90% 29.89 in 1.8 mi West 6.9 mph - N/A Snow Light Snow
2:32 PM 28.4 °F 23.3 °F 26.1 °F 91% 29.88 in 1.5 mi West 4.6 mph - N/A Snow Light Snow
2:53 PM 28.4 °F 23.3 °F 26.8 °F 94% 29.86 in 1.0 mi WSW 4.6 mph - N/A Snow Light Snow
3:13 PM 28.8 °F 25.0 °F 27.1 °F 94% 29.85 in 0.8 mi WSW 3.5 mph - N/A Snow Light Snow
3:32 PM 28.9 °F 23.9 °F 27.5 °F 94% 29.84 in 1.0 mi WSW 4.6 mph - N/A Snow Light Snow
3:53 PM 29.1 °F 23.0 °F 27.9 °F 95% 29.83 in 1.2 mi WSW 5.8 mph - N/A Snow Light Snow
4:13 PM 29.1 °F 23.0 °F 27.9 °F 95% 29.82 in 1.5 mi WSW 5.8 mph - N/A Snow Light Snow
4:32 PM 29.3 °F 23.2 °F 28.2 °F 96% 29.81 in 1.2 mi WSW 5.8 mph - N/A Snow Light Snow
4:52 PM 29.8 °F 24.9 °F 28.9 °F 96% 29.80 in 1.2 mi WSW 4.6 mph - N/A Snow Light Snow
5:13 PM 30.4 °F 22.9 °F 29.5 °F 96% 29.80 in 1.2 mi West 8.1 mph - N/A Snow Light Snow
5:32 PM 30.9 °F 23.5 °F 29.8 °F 96% 29.79 in 2.5 mi WSW 8.1 mph - N/A Snow Light Snow
5:52 PM 31.1 °F 22.4 °F 30.0 °F 96% 29.78 in 2.5 mi WSW 10.4 mph 16.1 mph N/A Snow Light Snow
6:13 PM 31.5 °F 21.4 °F 30.0 °F 94% 29.77 in 2.5 mi West 13.8 mph - N/A Snow Light Snow
6:32 PM 31.5 °F 23.5 °F 30.2 °F 95% 29.77 in 2.0 mi West 9.2 mph - N/A Snow Light Snow
6:52 PM 31.5 °F 23.5 °F 30.6 °F 96% 29.76 in 2.0 mi West 9.2 mph - N/A Snow Light Snow
7:13 PM 31.5 °F 21.8 °F 30.2 °F 95% 29.75 in 2.0 mi West 12.7 mph - N/A Snow Light Snow
7:32 PM 31.6 °F 21.2 °F 30.2 °F 94% 29.75 in 3.0 mi West 15.0 mph - N/A Snow Light Snow
7:52 PM 31.8 °F 21.4 °F 30.2 °F 94% 29.75 in 2.5 mi West 15.0 mph 19.6 mph N/A Snow Light Snow
8:13 PM 31.6 °F 22.1 °F 30.2 °F 94% 29.75 in 1.8 mi West 12.7 mph - N/A Snow Light Snow
8:32 PM 30.2 °F 21.3 °F 28.9 °F 95% 29.75 in 1.5 mi NW 10.4 mph - N/A Snow Light Snow
8:52 PM 29.7 °F 20.7 °F 28.2 °F 94% 29.75 in 2.0 mi NW 10.4 mph - N/A Snow Light Snow
9:13 PM 29.5 °F 18.8 °F 28.0 °F 94% 29.75 in 2.0 mi WNW 13.8 mph - N/A Snow Light Snow
9:32 PM 29.3 °F 20.2 °F 27.3 °F 92% 29.75 in 3.0 mi NW 10.4 mph - N/A Snow Light Snow
9:53 PM 29.3 °F 20.8 °F 27.3 °F 92% 29.75 in 4.0 mi WNW 9.2 mph - N/A Snow Light Snow
10:13 PM 29.3 °F 20.8 °F 27.1 °F 92% 29.74 in 10.0 mi WNW 9.2 mph - N/A   Overcast
10:32 PM 29.7 °F 22.8 °F 26.8 °F 89% 29.73 in 10.0 mi WNW 6.9 mph - N/A   Overcast
10:53 PM 29.7 °F 21.3 °F 26.4 °F 88% 29.73 in 10.0 mi WNW 9.2 mph - N/A   Overcast
11:13 PM 29.7 °F 20.7 °F 26.2 °F 87% 29.72 in 10.0 mi WNW 10.4 mph - N/A   Overcast
11:32 PM 29.5 °F 20.4 °F 26.2 °F 88% 29.72 in 10.0 mi WNW 10.4 mph - N/A   Overcast
11:52 PM 29.1 °F 20.6 °F 25.3 °F 86% 29.72 in 10.0 mi WNW 9.2 mph - N/A   Overcast